Location: Althorst
(53.6379°N, 10.7715°E)
Time: 21:28:02
(UTC+00:00)

H-2A R/B - Pass Details

Date: 10 December 2019
Orbit: 501 x 541 km, 97.3° (Epoch: 17 January)

Event Time Altitude Azimuth Distance (km) Brightness Sun altitude
Rises 16:31:27 0° 165° (SSE) 2,601 6.4 -12.9°
Reaches altitude 10° 16:33:32 10° 166° (SSE) 1,717 5.4 -13.2°
Maximum altitude 16:37:14 87° 259° (WSW) 512 2.6 -13.7°
Drops below altitude 10° 16:40:57 10° 346° (NNW) 1,724 5.3 -14.2°
Sets 16:43:02 0° 347° (NNW) 2,614 6.2 -14.5°
